Regional Weather Roundup
Issued by NWS Little Rock, AR

Home | Current Version | Previous Version | Text Only | Print | Product List | Glossary On
Versions: 1 2 3 4 5 6 7 8 9 10 11 12 13 14 15 16 17 18 19 20 21 22 23 24 25 26 27 28 29 30 31 32 33 34 35 36 37 38 39 40 41 42 43 44 45 46 47 48 49 50
827
ASUS44 KLZK 190705
RWRLZK

WEATHER ROUNDUP FOR ARKANSAS
NATIONAL WEATHER SERVICE LITTLE ROCK AR
200 AM CDT THU SEP 19 2019

NOTE: "FAIR" INDICATES FEW OR NO CLOUDS BELOW 12,000 FEET WITH NO
SIGNIFICANT WEATHER AND/OR OBSTRUCTIONS TO VISIBILITY.

ARZ001-003-010-029-190800-
NORTHWEST ARKANSAS

CITY           SKY/WX    TMP DP  RH WIND       PRES   REMARKS
FAYETTEVILLE   CLEAR     66  66 100 CALM      30.01S
FORT SMITH     CLEAR     77  74  90 CALM      29.95S
HARRISON       CLEAR     69  65  86 CALM      30.04S
BENTONVILLE    CLEAR     75  67  76 SE5       30.03S
ROGERS         CLEAR     74  67  78 SE6       30.03S
SILOAM SPGS    CLEAR     72  67  84 SE6       30.01S
HIGHFILL       CLEAR     71  64  78 CALM      30.01F
$$

ARZ004-005-016-190800-
NORTH CENTRAL ARKANSAS

CITY           SKY/WX    TMP DP  RH WIND       PRES   REMARKS
BATESVILLE     CLEAR     69  66  90 CALM      30.00S
FLIPPIN        CLEAR     70  67  90 CALM      30.01S
MTN HOME       CLEAR     76  64  66 S3        30.01S
$$

ARZ040-041-190800-
WEST CENTRAL ARKANSAS

CITY           SKY/WX    TMP DP  RH WIND       PRES   REMARKS
MENA           CLEAR     77  70  78 CALM      29.99S
MOUNT IDA      CLEAR     76  70  82 CALM      29.96S
$$

ARZ009-017-025-026-028-190800-
NORTHEAST ARKANSAS

CITY           SKY/WX    TMP DP  RH WIND       PRES   REMARKS
JONESBORO      FAIR      74  67  78 NE6       29.98F
NEWPORT        FAIR      69  66  90 NE5       29.98F FOG
WALNUT RIDGE   FAIR      72  68  87 N5        29.99S
BLYTHEVILLE    FAIR      69  65  86 E3        29.99S
$$

ARZ022-023-033-042-044-190800-
CENTRAL ARKANSAS

CITY           SKY/WX    TMP DP  RH WIND       PRES   REMARKS
LITTLE ROCK    PTCLDY    75  71  87 CALM      29.97R
N LITTLE ROCK    N/A     75  68  78 CALM      29.98R
BENTON         PTSUNNY   79  72  78 CALM      29.97S
JACKSONVILLE   MOCLDY    77  72  83 CALM      29.98R
CONWAY           N/A     77  70  78 MISG      29.96S
SEARCY         FAIR      72  69  90 CALM      29.99R
HOT SPRINGS    PTCLDY    76  73  91 E3        29.97S
RUSSELLVILLE   CLEAR     78  65  63 E3        29.96S
CLINTON        MOCLDY    68  68 100 CALM      30.00S
$$

ARZ036-190800-
EAST ARKANSAS

CITY           SKY/WX    TMP DP  RH WIND       PRES   REMARKS
WEST MEMPHIS   FAIR      75  71  87 CALM      29.97R
$$

ARZ050-053-066-070-073-190800-
SOUTHWEST ARKANSAS

CITY           SKY/WX    TMP DP  RH WIND       PRES   REMARKS
ARKADELPHIA    FAIR      72  71  97 CALM      29.97S
CAMDEN         FAIR      72  68  88 CALM      29.95S
TEXARKANA      CLEAR     72  70  93 CALM      29.95S
EL DORADO      FAIR      72  72 100 CALM      29.96S
DE QUEEN       CLEAR     76  70  82 SE7       29.93S
$$

ARZ056-057-069-190800-
SOUTHEAST ARKANSAS

CITY           SKY/WX    TMP DP  RH WIND       PRES   REMARKS
PINE BLUFF     FAIR      76  69  79 SW3       29.97S
STUTTGART      FAIR      78  70  76 CALM      29.97S
MONTICELLO     FAIR      74  70  87 CALM      29.96F

$$






USA.gov is the U.S. government's official web portal to all federal, state and local government web resources and services.